When you browse on this site, cookies collect data to enhance your experience and personalize the content and advertising you see.
Visit our Privacy Policy to learn more. By continuing to use the site, you agree to this use of cookies and data.
  • In Österreich
  • Länderverzeichnis
  • Für 7 Tage
  • Wassertemperatur
  • Wetterkarte
  • News
  • Widgets
  • user-avatar
    Anmelden

    Stündliche Wetter Tlanchinol

    Heute, 18 Januar, Samstag

    Zeit Temperatur Niederschläge Wind Luftdruck Luftfeuchtigkeit
    00:00 +13°C° 0 mm 0 m/S 647 mmHg 97%
    01:00 +13°C° 0 mm 0 m/S 647 mmHg 97%
    02:00 +13°C° 0 mm 0 m/S 647 mmHg 97%
    03:00 +13°C° 0.1 mm 0 m/S 647 mmHg 97%
    04:00 +13°C° 0.1 mm 0 m/S 647 mmHg 97%
    05:00 +13°C° 0 mm 0 m/S 647 mmHg 97%
    06:00 +14°C° 0 mm 0 m/S 647 mmHg 95%
    07:00 +14°C° 0 mm 0 m/S 648 mmHg 94%
    08:00 +14°C° 0 mm 0 m/S 648 mmHg 92%
    09:00 +15°C° 0 mm 0 m/S 648 mmHg 90%
    10:00 +18°C° 0 mm 1 m/S 649 mmHg 87%
    11:00 +19°C° 0 mm 1 m/S 649 mmHg 84%
    12:00 +19°C° 0.2 mm 1 m/S 648 mmHg 83%
    13:00 +19°C° 0.2 mm 1 m/S 647 mmHg 83%
    14:00 +19°C° 0.2 mm 1 m/S 647 mmHg 82%
    15:00 +19°C° 0.2 mm 1 m/S 647 mmHg 85%
    16:00 +18°C° 0.2 mm 1 m/S 647 mmHg 89%
    17:00 +16°C° 0.2 mm 1 m/S 647 mmHg 92%
    18:00 +16°C° 0 mm 1 m/S 647 mmHg 93%
    19:00 +15°C° 0 mm 1 m/S 647 mmHg 94%
    20:00 +13°C° 0 mm 0 m/S 648 mmHg 96%
    21:00 +13°C° 0.1 mm 0 m/S 648 mmHg 95%
    22:00 +13°C° 0.1 mm 0 m/S 648 mmHg 95%
    23:00 +13°C° 0.1 mm 0 m/S 647 mmHg 95%

    Morgen, 19 Januar, Sonntag

    Zeit Temperatur Niederschläge Wind Luftdruck Luftfeuchtigkeit
    00:00 +13°C° 0.7 mm 0 m/S 647 mmHg 96%
    01:00 +13°C° 0.7 mm 0 m/S 647 mmHg 96%
    02:00 +13°C° 0.7 mm 0 m/S 647 mmHg 97%
    03:00 +14°C° 1.2 mm 1 m/S 648 mmHg 97%
    04:00 +14°C° 1.2 mm 1 m/S 648 mmHg 98%
    05:00 +14°C° 1.2 mm 1 m/S 648 mmHg 99%
    06:00 +14°C° 2.2 mm 1 m/S 648 mmHg 99%
    07:00 +14°C° 2.2 mm 1 m/S 649 mmHg 98%
    08:00 +13°C° 2.2 mm 1 m/S 649 mmHg 98%
    09:00 +13°C° 2.4 mm 1 m/S 649 mmHg 98%
    10:00 +13°C° 2.4 mm 2 m/S 649 mmHg 98%
    11:00 +12°C° 2.4 mm 2 m/S 649 mmHg 98%
    12:00 +12°C° 1 mm 1 m/S 649 mmHg 98%
    13:00 +12°C° 1 mm 1 m/S 648 mmHg 97%
    14:00 +11°C° 1 mm 1 m/S 648 mmHg 97%
    15:00 +11°C° 0.4 mm 1 m/S 648 mmHg 97%
    16:00 +11°C° 0.4 mm 1 m/S 648 mmHg 97%
    17:00 +11°C° 0.4 mm 1 m/S 649 mmHg 97%
    18:00 +11°C° 0.6 mm 1 m/S 649 mmHg 97%
    19:00 +11°C° 0.6 mm 1 m/S 649 mmHg 97%
    20:00 +10°C° 0.6 mm 1 m/S 650 mmHg 97%
    21:00 +10°C° 1 mm 1 m/S 650 mmHg 97%
    22:00 +10°C° 1 mm 1 m/S 650 mmHg 97%
    23:00 +10°C° 1 mm 1 m/S 650 mmHg 97%

    übermorgen, 20 Januar, Montag

    Zeit Temperatur Niederschläge Wind Luftdruck Luftfeuchtigkeit
    00:00 +10°C° 1 mm 1 m/S 650 mmHg 97%
    01:00 +10°C° 1 mm 1 m/S 649 mmHg 98%
    02:00 +9°C° 1 mm 1 m/S 649 mmHg 98%
    03:00 +9°C° 0.7 mm 1 m/S 649 mmHg 98%
    04:00 +9°C° 0.7 mm 1 m/S 649 mmHg 98%
    05:00 +9°C° 0.7 mm 1 m/S 649 mmHg 98%
    06:00 +9°C° 0.7 mm 1 m/S 650 mmHg 98%
    07:00 +9°C° 0.7 mm 1 m/S 650 mmHg 98%
    08:00 +8°C° 0.7 mm 1 m/S 651 mmHg 97%
    09:00 +9°C° 0.4 mm 1 m/S 650 mmHg 97%
    10:00 +9°C° 0.4 mm 1 m/S 650 mmHg 96%
    11:00 +8°C° 0.4 mm 0 m/S 650 mmHg 96%
    12:00 +9°C° 0.5 mm 1 m/S 650 mmHg 96%
    13:00 +9°C° 0.5 mm 1 m/S 650 mmHg 96%
    14:00 +9°C° 0.5 mm 1 m/S 649 mmHg 97%
    15:00 +9°C° 0.2 mm 1 m/S 649 mmHg 97%
    16:00 +8°C° 0.2 mm 0 m/S 649 mmHg 97%
    17:00 +8°C° 0.2 mm 0 m/S 649 mmHg 98%
    18:00 +8°C° 0.2 mm 0 m/S 650 mmHg 98%
    19:00 +8°C° 0.2 mm 0 m/S 650 mmHg 98%
    20:00 +8°C° 0.2 mm 0 m/S 650 mmHg 98%
    21:00 +8°C° 0.1 mm 0 m/S 650 mmHg 98%
    22:00 +8°C° 0.1 mm 0 m/S 650 mmHg 98%
    23:00 +8°C° 0.1 mm 0 m/S 650 mmHg 98%

    21 Januar, Dienstag

    Zeit Temperatur Niederschläge Wind Luftdruck Luftfeuchtigkeit
    00:00 +8°C° 0.1 mm 0 m/S 650 mmHg 98%
    01:00 +8°C° 0.1 mm 0 m/S 649 mmHg 98%
    02:00 +8°C° 0.1 mm 0 m/S 649 mmHg 98%
    03:00 +8°C° 0 mm 0 m/S 649 mmHg 98%
    04:00 +8°C° 0 mm 0 m/S 649 mmHg 98%
    05:00 +8°C° 0 mm 0 m/S 648 mmHg 98%
    06:00 +9°C° 0 mm 0 m/S 649 mmHg 96%
    07:00 +9°C° 0 mm 0 m/S 649 mmHg 94%
    08:00 +10°C° 0 mm 0 m/S 649 mmHg 93%
    09:00 +11°C° 0 mm 1 m/S 649 mmHg 91%
    10:00 +12°C° 0 mm 1 m/S 649 mmHg 90%
    11:00 +12°C° 0 mm 2 m/S 649 mmHg 88%
    12:00 +12°C° 0 mm 2 m/S 648 mmHg 90%
    13:00 +12°C° 0 mm 2 m/S 647 mmHg 92%
    14:00 +11°C° 0 mm 1 m/S 646 mmHg 94%
    15:00 +11°C° 0 mm 1 m/S 646 mmHg 95%
    16:00 +11°C° 0 mm 1 m/S 646 mmHg 95%
    17:00 +10°C° 0 mm 1 m/S 645 mmHg 96%
    18:00 +9°C° 0 mm 0 m/S 646 mmHg 97%
    19:00 +9°C° 0 mm 0 m/S 646 mmHg 97%
    20:00 +9°C° 0 mm 0 m/S 647 mmHg 97%
    21:00 +9°C° 0 mm 0 m/S 646 mmHg 97%
    22:00 +9°C° 0 mm 0 m/S 646 mmHg 97%
    23:00 +9°C° 0 mm 0 m/S 645 mmHg 98%

    22 Januar, Mittwoch

    Zeit Temperatur Niederschläge Wind Luftdruck Luftfeuchtigkeit
    00:00 +9°C° 0 mm 0 m/S 645 mmHg 97%
    01:00 +8°C° 0 mm 0 m/S 644 mmHg 97%
    02:00 +8°C° 0 mm 0 m/S 644 mmHg 97%
    03:00 +8°C° 0 mm 0 m/S 644 mmHg 97%
    04:00 +8°C° 0 mm 0 m/S 643 mmHg 96%
    05:00 +8°C° 0 mm 0 m/S 643 mmHg 96%
    06:00 +10°C° 0 mm 0 m/S 644 mmHg 91%
    07:00 +11°C° 0 mm 0 m/S 644 mmHg 85%
    08:00 +12°C° 0 mm 0 m/S 645 mmHg 80%
    09:00 +14°C° 0 mm 0 m/S 645 mmHg 76%
    10:00 +16°C° 0 mm 1 m/S 645 mmHg 73%
    11:00 +17°C° 0 mm 2 m/S 645 mmHg 69%
    12:00 +17°C° 0 mm 2 m/S 644 mmHg 72%
    13:00 +17°C° 0 mm 2 m/S 643 mmHg 75%
    14:00 +17°C° 0 mm 2 m/S 642 mmHg 77%
    15:00 +16°C° 0 mm 2 m/S 642 mmHg 82%
    16:00 +15°C° 0 mm 1 m/S 642 mmHg 87%
    17:00 +14°C° 0 mm 1 m/S 642 mmHg 92%
    18:00 +13°C° 0 mm 1 m/S 642 mmHg 93%
    19:00 +12°C° 0 mm 0 m/S 643 mmHg 94%
    20:00 +11°C° 0 mm 0 m/S 643 mmHg 96%
    21:00 +11°C° 0.2 mm 0 m/S 643 mmHg 95%
    22:00 +11°C° 0.2 mm 0 m/S 643 mmHg 95%
    23:00 +11°C° 0.2 mm 0 m/S 643 mmHg 95%

    23 Januar, Donnerstag

    Zeit Temperatur Niederschläge Wind Luftdruck Luftfeuchtigkeit
    00:00 +11°C° 0 mm 0 m/S 642 mmHg 95%
    01:00 +11°C° 0 mm 0 m/S 642 mmHg 94%
    02:00 +10°C° 0 mm 0 m/S 642 mmHg 94%
    03:00 +11°C° 0 mm 0 m/S 642 mmHg 93%
    04:00 +11°C° 0 mm 0 m/S 642 mmHg 92%
    05:00 +11°C° 0 mm 0 m/S 642 mmHg 91%
    06:00 +11°C° 0 mm 0 m/S 643 mmHg 89%
    07:00 +12°C° 0 mm 0 m/S 643 mmHg 87%
    08:00 +13°C° 0 mm 0 m/S 644 mmHg 84%
    09:00 +13°C° 0.3 mm 0 m/S 644 mmHg 86%
    10:00 +13°C° 0.3 mm 0 m/S 644 mmHg 87%
    11:00 +15°C° 0.3 mm 1 m/S 644 mmHg 88%
    12:00 +16°C° 0.2 mm 1 m/S 643 mmHg 83%
    13:00 +18°C° 0.2 mm 1 m/S 643 mmHg 77%
    14:00 +18°C° 0.2 mm 2 m/S 643 mmHg 72%
    15:00 +17°C° 0 mm 2 m/S 642 mmHg 74%
    16:00 +16°C° 0 mm 1 m/S 642 mmHg 76%
    17:00 +15°C° 0 mm 1 m/S 642 mmHg 78%
    18:00 +15°C° 0 mm 1 m/S 642 mmHg 73%
    19:00 +15°C° 0 mm 2 m/S 642 mmHg 68%
    20:00 +15°C° 0 mm 2 m/S 642 mmHg 63%
    21:00 +14°C° 0 mm 2 m/S 642 mmHg 61%
    22:00 +14°C° 0 mm 2 m/S 642 mmHg 60%
    23:00 +13°C° 0 mm 2 m/S 642 mmHg 58%
    Mehr zeigen